Weather History for KLYV - December, 2012

Change the Weather History Date:

Monday, December 24, 2012

  Actual Average (KFSD) Record (KFSD)
Temperature  
Mean Temperature 7 °F 17 °F  
Max Temperature 14 °F 27 °F 48 °F (2011)
Min Temperature 0 °F 8 °F -23 °F (1983)
Degree Days  
Heating Degree Days 58 48  
Month to date heating degree days 1083  
Since 1 July heating degree days 2795  
Cooling Degree Days 0 0  
Month to date cooling degree days 0  
Year to date cooling degree days 690  
Moisture  
Dew Point 2 °F    
Average Humidity 75    
Maximum Humidity 85    
Minimum Humidity 61    
Precipitation  
Precipitation 0.00 in 0.02 in 0.89 in (1893)
Month to date precipitation 0.56  
Year to date precipitation 26.25  
Snow  
Snow 0.00 in 0.30 in 6.30 in (1973)
Month to date snowfall 6.5  
Since 1 July snowfall 15.2  
Snow Depth -    
Sea Level Pressure  
Sea Level Pressure 30.12 in    
Wind  
Wind Speed 9 mph (NNW)    
Max Wind Speed 16 mph    
Max Gust Speed 18 mph    
Visibility 9 miles    
Events Snow    
T = Trace of Precipitation, MM = Missing Value Source: NWS Daily Summary

Daily Weather History Graph

Daily Weather History Graph

Search for Another Location

Airport or City:

Trip Planner

Search our weather history database for the weather conditions in past years. The results will help you decide how hot, cold, wet, or windy it might be!

Date:

Astronomy

Dec. 24, 2012 Rise Set
Actual Time 7:56 AM CST 4:52 PM CST
Civil Twilight 7:23 AM CST 5:25 PM CST
Nautical Twilight 6:47 AM CST 6:02 PM CST
Astronomical Twilight 6:12 AM CST 6:37 PM CST
Moon 2:23 PM CST (12/24) 4:33 AM CST (12/24)
Length of Visible Light 10h 02m
Length of Day
8h 56m
Waxing Gibbous, 88% of the Moon is Illuminated
Dec 24
Waxing Gibbous
Dec 28
Full
Jan 4
Last Quarter
Jan 11
New
Jan 18
First Quarter

Hourly Weather History & Observations

Time (CST) Temp. Windchill Dew Point Humidity Pressure Visibility Wind Dir Wind Speed Gust Speed Precip Events Conditions
12:15 AM 12.2 °F 6.1 °F 8.6 °F 85% 29.99 in 3.0 mi NNW 3.5 mph - N/A Snow Light Snow
12:35 AM 12.2 °F 6.1 °F 8.6 °F 85% 29.99 in 4.0 mi NNW 3.5 mph - N/A Snow Light Snow
12:55 AM 12.2 °F 4.3 °F 8.6 °F 85% 29.98 in 5.0 mi NW 4.6 mph - N/A Snow Light Snow
1:15 AM 12.2 °F 4.3 °F 8.6 °F 85% 29.98 in 5.0 mi WNW 4.6 mph - N/A Snow Light Snow
1:35 AM 14.0 °F 2.9 °F 8.6 °F 79% 29.98 in 7.0 mi NW 8.1 mph - N/A Snow Light Snow
1:56 AM 12.2 °F -0.2 °F 8.6 °F 85% 29.98 in 10.0 mi NW 9.2 mph - N/A Snow Light Snow
2:15 AM 12.2 °F -0.2 °F 8.6 °F 85% 29.98 in 7.0 mi NW 9.2 mph - N/A Snow Light Snow
2:35 AM 12.2 °F 0.7 °F 8.6 °F 85% 29.99 in 4.0 mi NW 8.1 mph - N/A Snow Light Snow
2:55 AM 12.2 °F -1.0 °F 8.6 °F 85% 29.99 in 4.0 mi NNW 10.4 mph - N/A Snow Light Snow
3:15 AM 12.2 °F -1.0 °F 8.6 °F 85% 30.00 in 5.0 mi NNW 10.4 mph 16.1 mph N/A Snow Light Snow
3:35 AM 12.2 °F -1.8 °F 8.6 °F 85% 30.00 in 5.0 mi NNW 11.5 mph - N/A Snow Light Snow
3:55 AM 12.2 °F -1.8 °F 8.6 °F 85% 30.00 in 4.0 mi NNW 11.5 mph 17.3 mph N/A Snow Light Snow
4:15 AM 12.2 °F -3.1 °F 8.6 °F 85% 30.01 in 5.0 mi NNW 13.8 mph - N/A Snow Light Snow
4:35 AM 12.2 °F -3.1 °F 8.6 °F 85% 30.01 in 4.0 mi NNW 13.8 mph - N/A Snow Light Snow
4:55 AM 12.2 °F -3.1 °F 8.6 °F 85% 30.01 in 5.0 mi NNW 13.8 mph - N/A Snow Light Snow
5:15 AM 12.2 °F -4.3 °F 8.6 °F 85% 30.01 in 7.0 mi NNW 16.1 mph - N/A Snow Light Snow
5:36 AM 12.2 °F -1.8 °F 8.6 °F 85% 30.02 in 7.0 mi NNW 11.5 mph - N/A Snow Light Snow
6:15 AM 12.2 °F -1.8 °F 6.8 °F 79% 30.03 in 10.0 mi NNW 11.5 mph - N/A Snow Light Snow
6:36 AM 12.2 °F -1.8 °F 6.8 °F 79% 30.04 in 10.0 mi NNW 11.5 mph - N/A   Overcast
6:55 AM 12.2 °F 1.7 °F 5.0 °F 73% 30.05 in 2.5 mi NNW 6.9 mph - N/A   Haze
7:15 AM 10.4 °F -2.4 °F 5.0 °F 79% 30.06 in 10.0 mi NNW 9.2 mph - N/A   Scattered Clouds
7:36 AM 8.6 °F -3.7 °F 3.2 °F 79% 30.06 in 10.0 mi NNW 8.1 mph - N/A Snow Light Snow
7:55 AM 8.6 °F -2.6 °F 3.2 °F 79% 30.07 in 10.0 mi NNW 6.9 mph - N/A Snow Light Snow
8:15 AM 6.8 °F -4.8 °F 1.4 °F 79% 30.07 in 10.0 mi NNW 6.9 mph - N/A   Clear
8:36 AM 8.6 °F -4.7 °F 3.2 °F 79% 30.06 in 10.0 mi North 9.2 mph - N/A   Clear
8:55 AM 8.6 °F -7.0 °F 3.2 °F 79% 30.06 in 10.0 mi North 12.7 mph - N/A   Clear
9:15 AM 10.4 °F -4.8 °F 3.2 °F 73% 30.06 in 10.0 mi NNE 12.7 mph 18.4 mph N/A   Clear
9:36 AM 10.4 °F -4.8 °F 3.2 °F 73% 30.08 in 10.0 mi North 12.7 mph 18.4 mph N/A   Clear
9:55 AM 10.4 °F -4.1 °F 3.2 °F 73% 30.10 in 10.0 mi North 11.5 mph - N/A   Clear
10:15 AM 10.4 °F -3.3 °F 5.0 °F 79% 30.10 in 10.0 mi North 10.4 mph 17.3 mph N/A   Clear
10:36 AM 10.4 °F -4.8 °F 3.2 °F 73% 30.11 in 10.0 mi North 12.7 mph - N/A   Clear
10:55 AM 10.4 °F 0.8 °F 3.2 °F 73% 30.12 in 10.0 mi North 5.8 mph - N/A   Clear
11:15 AM 10.4 °F -1.5 °F 5.0 °F 79% 30.14 in 10.0 mi NNW 8.1 mph - N/A   Clear
11:36 AM 12.2 °F 0.7 °F 5.0 °F 73% 30.14 in 10.0 mi NNW 8.1 mph - N/A   Clear
11:55 AM 12.2 °F 0.7 °F 5.0 °F 73% 30.13 in 10.0 mi NNW 8.1 mph - N/A   Clear
12:15 PM 12.2 °F -0.2 °F 5.0 °F 73% 30.13 in 10.0 mi NNW 9.2 mph - N/A   Clear
12:35 PM 12.2 °F -3.1 °F 5.0 °F 73% 30.12 in 10.0 mi North 13.8 mph - N/A   Clear
12:55 PM 12.2 °F -3.7 °F 5.0 °F 73% 30.11 in 10.0 mi North 15.0 mph - N/A   Clear
1:15 PM 12.2 °F -3.7 °F 5.0 °F 73% 30.11 in 10.0 mi North 15.0 mph - N/A   Clear
1:35 PM 12.2 °F -1.0 °F 5.0 °F 73% 30.12 in 10.0 mi NNW 10.4 mph - N/A   Clear
1:55 PM 12.2 °F -0.2 °F 5.0 °F 73% 30.14 in 10.0 mi NW 9.2 mph - N/A   Clear
2:15 PM 12.2 °F 0.7 °F 3.2 °F 67% 30.14 in 10.0 mi NNW 8.1 mph - N/A   Clear
2:35 PM 12.2 °F -1.8 °F 3.2 °F 67% 30.15 in 10.0 mi NNW 11.5 mph - N/A   Clear
2:55 PM 12.2 °F -3.1 °F 3.2 °F 67% 30.16 in 10.0 mi NNW 13.8 mph - N/A   Clear
3:15 PM 10.4 °F -4.8 °F 1.4 °F 67% 30.17 in 10.0 mi NNW 12.7 mph - N/A   Clear
3:35 PM 10.4 °F -5.4 °F 1.4 °F 67% 30.17 in 10.0 mi NNW 13.8 mph - N/A   Clear
3:55 PM 8.6 °F -5.5 °F -0.4 °F 67% 30.18 in 10.0 mi NNW 10.4 mph - N/A   Clear
4:15 PM 8.6 °F -6.3 °F -0.4 °F 67% 30.18 in 10.0 mi North 11.5 mph - N/A   Clear
4:35 PM 8.6 °F -6.3 °F -0.4 °F 67% 30.18 in 10.0 mi North 11.5 mph - N/A   Clear
4:55 PM 6.8 °F -7.8 °F -4.0 °F 61% 30.18 in 10.0 mi North 10.4 mph 16.1 mph N/A   Clear
5:15 PM 5.0 °F -8.1 °F -4.0 °F 66% 30.18 in 10.0 mi North 8.1 mph - N/A   Clear
5:35 PM 5.0 °F -5.6 °F -4.0 °F 66% 30.19 in 10.0 mi North 5.8 mph - N/A   Clear
5:55 PM 5.0 °F -5.6 °F -4.0 °F 66% 30.21 in 10.0 mi NNW 5.8 mph - N/A   Clear
6:16 PM 3.2 °F -12.2 °F -4.0 °F 72% 30.19 in 10.0 mi North 10.4 mph - N/A   Clear
6:35 PM 3.2 °F -7.8 °F -4.0 °F 72% 30.19 in 10.0 mi NNE 5.8 mph - N/A   Clear
6:55 PM 3.2 °F -11.3 °F -4.0 °F 72% 30.20 in 10.0 mi North 9.2 mph - N/A   Clear
7:16 PM 3.2 °F -12.2 °F -4.0 °F 72% 30.20 in 10.0 mi North 10.4 mph 18.4 mph N/A   Clear
7:35 PM 1.4 °F -12.5 °F -5.8 °F 72% 30.20 in 10.0 mi NNE 8.1 mph - N/A   Clear
7:55 PM 1.4 °F -9.9 °F -5.8 °F 72% 30.21 in 10.0 mi North 5.8 mph - N/A   Clear
8:16 PM 1.4 °F -14.5 °F -5.8 °F 72% 30.21 in 10.0 mi North 10.4 mph - N/A   Clear
8:35 PM 1.4 °F -8.3 °F -5.8 °F 72% 30.23 in 10.0 mi North 4.6 mph - N/A   Clear
8:55 PM -0.4 °F -14.7 °F -5.8 °F 78% 30.23 in 10.0 mi North 8.1 mph - N/A   Clear
9:16 PM -0.4 °F -15.7 °F -5.8 °F 78% 30.24 in 10.0 mi North 9.2 mph - N/A   Clear
9:35 PM -0.4 °F -14.7 °F -5.8 °F 78% 30.24 in 10.0 mi North 8.1 mph - N/A   Clear
9:55 PM -0.4 °F -14.7 °F -7.6 °F 72% 30.25 in 10.0 mi North 8.1 mph 16.1 mph N/A   Clear
10:16 PM -0.4 °F -12.0 °F -7.6 °F 72% 30.26 in 10.0 mi NNE 5.8 mph - N/A   Clear
10:35 PM -0.4 °F -10.4 °F -7.6 °F 72% 30.27 in 10.0 mi NNE 4.6 mph - N/A   Clear
10:55 PM -0.4 °F -10.4 °F -7.6 °F 72% 30.29 in 10.0 mi NNE 4.6 mph - N/A   Clear
11:16 PM -0.4 °F -8.3 °F -7.6 °F 72% 30.31 in 10.0 mi NNE 3.5 mph - N/A   Clear
11:35 PM -0.4 °F -12.0 °F -7.6 °F 72% 30.31 in 10.0 mi North 5.8 mph - N/A   Clear
11:55 PM -0.4 °F -12.0 °F -7.6 °F 72% 30.32 in 10.0 mi North 5.8 mph - N/A   Clear